Dodge City, KS

3:18 AM CDT on May 25, 2018 (GMT -0500)
Dodge City Regional

Weather History for KDDC - February, 2013

Change the Weather History Date:

Tuesday, February 26, 2013

  Actual Average Record
Temperature  
Mean Temperature 24 °F -  
Max Temperature 33 °F 53 °F 76 °F (1981)
Min Temperature 16 °F 28 °F -3 °F (1890)
Degree Days  
Heating Degree Days 40    
Moisture  
Dew Point 18 °F    
Average Humidity 76    
Maximum Humidity 88    
Minimum Humidity 52    
Precipitation  
Precipitation 0.00 in - - ()
Sea Level Pressure  
Sea Level Pressure 29.90 in    
Wind  
Wind Speed 12 mph (NNW)    
Max Wind Speed 16 mph    
Max Gust Speed -    
Visibility 10 miles    
Events      
Averages and records for this station are not official NWS values.
T = Trace of Precipitation, MM = Missing Value Source: NWS Daily Summary

Daily Weather History Graph

Daily Weather History Graph

Search for Another Location

Airport or City:

Astronomy

Feb. 26, 2013 Rise Set
Actual Time 7:15 AM CST 6:30 PM CST
Civil Twilight 6:48 AM CST 6:57 PM CST
Nautical Twilight 6:18 AM CST 7:27 PM CST
Astronomical Twilight 5:47 AM CST 7:58 PM CST
Moon 7:46 PM CST (2/26) 7:20 AM CST (2/26)
Length of Visible Light 12h 08m
Length of Day
11h 15m
Full, 99% of the Moon is Illuminated
Feb 26
Full
Mar 4
Last Quarter
Mar 11
New
Mar 19
First Quarter
Mar 27
Full

Hourly Weather History & Observations

Time (CST) Temp. Windchill Dew Point Humidity Pressure Visibility Wind Dir Wind Speed Gust Speed Precip Events Conditions
12:52 AM 28.0 °F 16.1 °F 23.0 °F 81% 29.91 in 10.0 mi North 16.1 mph - N/A   Overcast
1:52 AM 26.1 °F 14.0 °F 21.9 °F 84% 29.91 in 10.0 mi North 15.0 mph - N/A   Overcast
2:52 AM 26.1 °F 13.6 °F 21.0 °F 81% 29.88 in 10.0 mi North 16.1 mph - N/A   Overcast
3:52 AM 21.0 °F 8.1 °F 17.1 °F 85% 29.87 in 9.0 mi NW 13.8 mph - N/A   Clear
4:52 AM 18.0 °F 4.2 °F 14.0 °F 84% 29.88 in 9.0 mi NW 13.8 mph - N/A   Clear
5:52 AM 18.0 °F 3.6 °F 14.0 °F 84% 29.87 in 10.0 mi NW 15.0 mph - N/A   Clear
6:52 AM 17.1 °F 3.6 °F 12.9 °F 84% 29.87 in 10.0 mi NW 12.7 mph - N/A   Clear
7:52 AM 16.0 °F 1.7 °F 12.0 °F 84% 29.88 in 9.0 mi NW 13.8 mph - N/A   Clear
8:52 AM 19.4 °F 6.0 °F 14.0 °F 80% 29.83 in 10.0 mi NW 13.8 mph - N/A   Clear
9:52 AM 23.0 °F 10.1 °F 16.0 °F 74% 29.88 in 10.0 mi NNW 15.0 mph - N/A   Clear
10:52 AM 26.1 °F 15.6 °F 19.0 °F 75% 29.88 in 10.0 mi NNW 11.5 mph - N/A   Clear
11:52 AM 28.9 °F 19.8 °F 21.0 °F 72% 29.88 in 10.0 mi NNW 10.4 mph - N/A   Clear
12:52 PM 30.9 °F 22.8 °F 21.0 °F 67% 29.86 in 10.0 mi NNW 9.2 mph - N/A   Clear
1:52 PM 32.0 °F 22.5 °F 21.2 °F 64% 29.79 in 10.0 mi NNW 12.7 mph - N/A   Clear
2:52 PM 33.1 °F 25.5 °F 21.9 °F 64% 29.84 in 10.0 mi NNW 9.2 mph - N/A   Clear
3:52 PM 33.1 °F 26.1 °F 21.0 °F 61% 29.85 in 10.0 mi NNW 8.1 mph - N/A   Clear
4:52 PM 32.0 °F 24.8 °F 21.9 °F 66% 29.89 in 10.0 mi NNW 8.1 mph - N/A   Clear
5:52 PM 30.0 °F 24.1 °F 19.9 °F 66% 29.91 in 10.0 mi NNW 5.8 mph - N/A   Clear
6:52 PM 25.0 °F 17.1 °F 19.0 °F 78% 29.95 in 10.0 mi North 6.9 mph - N/A   Clear
7:52 PM 24.1 °F 18.2 °F 19.0 °F 81% 29.96 in 10.0 mi NNW 4.6 mph - N/A   Clear
8:52 PM 19.0 °F 9.0 °F 16.0 °F 88% 29.98 in 9.0 mi North 8.1 mph - N/A   Clear
9:52 PM 18.0 °F 9.8 °F 14.0 °F 84% 29.99 in 9.0 mi NNW 5.8 mph - N/A   Clear
10:52 PM 19.0 °F 7.5 °F 16.0 °F 88% 30.00 in 10.0 mi North 10.4 mph - N/A   Clear
11:52 PM 16.0 °F 6.3 °F 12.9 °F 88% 30.00 in 10.0 mi North 6.9 mph - N/A   Clear